XW-3 (CAS-9)

Last updated on Sun Aug 09 2026 00:03:15 GMT+0000 (Coordinated Universal Time)

1 50466U 21131B 26220.60410439 .00000351 00000+0 12200-3 0 9994 2 50466 98.4976 312.7112 0003054 314.0709 46.0228 14.41400807242660
UTC large
Height (km)
Speed (km/s)
/
Latitude / Longitude
Inclination (degrees)
Orbital Period (minutes)
Azimuth
Elevation
Range (km)
Doppler Factor

Next 0 passes for location: London (51.5072 / 0.1276)

No passes found over London.
XW-3 (CAS-9)